DLH4NF EDDB-EDDM

Flight info

Callsign DLH4NF
Flight time 0h 53m
Altitude 28000
Route LUROS4B LUROS Y211 BEBKU Z36 MAREM DCT VESUB T106 TUSTO T108 LANDU LANDU2A
Aircraft A320/M-SDE3FGHIRWY/LB1

Departure

Time 2026-05-06 12:50
Airport Berlin Brandenburg Airport (EDDB)

Arrival

Time 2026-05-06 13:43
Airport Munich Airport (EDDM)
Time Latitude Longitude Altitude Speed Heading
2026-05-06 12:20 52.36614 13.50450 155 ft 0 kts 68°
2026-05-06 12:41 52.36612 13.50441 155 ft 4 kts 68°
2026-05-06 12:41 52.36602 13.50399 155 ft 4 kts 68°
2026-05-06 12:42 52.36593 13.50358 155 ft 4 kts 68°
2026-05-06 12:42 52.36583 13.50319 154 ft 2 kts 68°
2026-05-06 12:42 52.36574 13.50286 154 ft 4 kts 54°
2026-05-06 12:42 52.36556 13.50258 154 ft 4 kts 12°
2026-05-06 12:43 52.36540 13.50258 154 ft 0 kts 339°
2026-05-06 12:43 52.36541 13.50258 154 ft 0 kts 339°
2026-05-06 12:45 52.36630 13.50201 156 ft 13 kts 339°
2026-05-06 12:46 52.36716 13.50122 155 ft 15 kts 307°
2026-05-06 12:46 52.36780 13.49977 154 ft 17 kts 278°
2026-05-06 12:46 52.36742 13.49789 154 ft 18 kts 249°
2026-05-06 12:46 52.36693 13.49589 154 ft 20 kts 247°
2026-05-06 12:47 52.36642 13.49370 154 ft 21 kts 249°
2026-05-06 12:47 52.36587 13.49138 154 ft 23 kts 249°
2026-05-06 12:47 52.36530 13.48892 156 ft 24 kts 249°
2026-05-06 12:47 52.36467 13.48633 154 ft 25 kts 249°
2026-05-06 12:48 52.36445 13.48426 154 ft 17 kts 307°
2026-05-06 12:48 52.36553 13.48348 154 ft 18 kts 340°
2026-05-06 12:48 52.36674 13.48279 154 ft 16 kts 349°
2026-05-06 12:48 52.36715 13.48300 154 ft 6 kts 39°
2026-05-06 12:49 52.36781 13.48545 154 ft 53 kts 68°
2026-05-06 12:49 52.36997 13.49461 155 ft 116 kts 69°
2026-05-06 12:49 52.37352 13.50959 157 ft 164 kts 69°
2026-05-06 12:49 52.37785 13.52842 496 ft 181 kts 67°
2026-05-06 12:50 52.38234 13.54802 1202 ft 186 kts 68°
2026-05-06 12:50 52.38714 13.56863 1640 ft 204 kts 67°
2026-05-06 12:50 52.39274 13.59160 1927 ft 232 kts 66°
2026-05-06 12:50 52.39912 13.61744 2412 ft 254 kts 67°
2026-05-06 12:51 52.40557 13.64443 3269 ft 260 kts 68°
2026-05-06 12:51 52.41210 13.67233 4147 ft 265 kts 68°
2026-05-06 12:51 52.41873 13.70076 4993 ft 270 kts 68°
2026-05-06 12:51 52.42555 13.72999 5753 ft 279 kts 68°
2026-05-06 12:52 52.43257 13.76032 6473 ft 289 kts 71°
2026-05-06 12:52 52.43569 13.79314 7214 ft 295 kts 95°
2026-05-06 12:52 52.43048 13.82554 7983 ft 296 kts 121°
2026-05-06 12:52 52.41764 13.85128 8788 ft 291 kts 147°
2026-05-06 12:53 52.39984 13.86588 9616 ft 285 kts 171°
2026-05-06 12:53 52.38017 13.86877 10230 ft 291 kts 184°
2026-05-06 12:53 52.35914 13.86881 10467 ft 314 kts 184°
2026-05-06 12:53 52.33646 13.86859 10651 ft 337 kts 184°
2026-05-06 12:54 52.31246 13.86833 11041 ft 350 kts 184°
2026-05-06 12:54 52.28787 13.86824 11713 ft 355 kts 183°
2026-05-06 12:54 52.26340 13.86831 12432 ft 358 kts 183°
2026-05-06 12:54 52.23841 13.86844 13155 ft 361 kts 183°
2026-05-06 12:55 52.21285 13.86860 13841 ft 363 kts 183°
2026-05-06 12:55 52.18769 13.86876 14449 ft 366 kts 183°
2026-05-06 12:55 52.16213 13.86891 15052 ft 369 kts 183°
2026-05-06 12:55 52.13638 13.86900 15651 ft 372 kts 183°
2026-05-06 12:56 52.11046 13.86902 16255 ft 374 kts 183°
2026-05-06 12:56 52.08437 13.86900 16821 ft 376 kts 184°
2026-05-06 12:56 52.05827 13.86899 17383 ft 379 kts 183°
2026-05-06 12:56 52.03176 13.86904 17965 ft 382 kts 183°
2026-05-06 12:57 52.00511 13.86914 18477 ft 385 kts 183°
2026-05-06 12:57 51.97824 13.86927 18975 ft 387 kts 183°
2026-05-06 12:57 51.95122 13.86936 19460 ft 389 kts 184°
2026-05-06 12:57 51.92402 13.86940 19934 ft 391 kts 184°
2026-05-06 12:58 51.89702 13.86942 20402 ft 394 kts 184°
2026-05-06 12:58 51.86953 13.86943 20858 ft 396 kts 184°
2026-05-06 12:58 51.84178 13.86950 21306 ft 399 kts 184°
2026-05-06 12:58 51.81393 13.86963 21753 ft 402 kts 184°
2026-05-06 12:59 51.78589 13.86972 22195 ft 404 kts 184°
2026-05-06 12:59 51.75768 13.86979 22613 ft 407 kts 184°
2026-05-06 12:59 51.72942 13.86983 23022 ft 409 kts 184°
2026-05-06 12:59 51.70079 13.86982 23414 ft 412 kts 184°
2026-05-06 13:00 51.67203 13.86985 23741 ft 414 kts 184°
2026-05-06 13:00 51.64311 13.86995 24110 ft 416 kts 184°
2026-05-06 13:00 51.61416 13.87008 24490 ft 417 kts 184°
2026-05-06 13:00 51.58548 13.86623 24848 ft 413 kts 193°
2026-05-06 13:01 51.55712 13.85844 25222 ft 413 kts 193°
2026-05-06 13:01 51.52907 13.85065 25586 ft 414 kts 193°
2026-05-06 13:01 51.50065 13.84271 25950 ft 415 kts 193°
2026-05-06 13:01 51.47184 13.83470 26307 ft 415 kts 193°
2026-05-06 13:02 51.44364 13.82690 26625 ft 416 kts 193°
2026-05-06 13:02 51.41509 13.81899 26963 ft 417 kts 193°
2026-05-06 13:02 51.38644 13.81108 27291 ft 418 kts 193°
2026-05-06 13:02 51.35775 13.80318 27615 ft 419 kts 193°
2026-05-06 13:03 51.32907 13.79529 27762 ft 417 kts 193°
2026-05-06 13:03 51.30057 13.78747 27783 ft 415 kts 193°
2026-05-06 13:03 51.27203 13.77968 27782 ft 414 kts 193°
2026-05-06 13:03 51.24363 13.77195 27783 ft 414 kts 193°
2026-05-06 13:04 51.21523 13.76421 27777 ft 415 kts 193°
2026-05-06 13:04 51.18677 13.75642 27783 ft 415 kts 193°
2026-05-06 13:04 51.15823 13.74858 27783 ft 416 kts 193°
2026-05-06 13:04 51.12967 13.74076 27783 ft 416 kts 193°
2026-05-06 13:05 51.10116 13.73298 27784 ft 416 kts 193°
2026-05-06 13:05 51.07261 13.72520 27782 ft 416 kts 193°
2026-05-06 13:05 51.04445 13.71751 27780 ft 416 kts 193°
2026-05-06 13:05 51.01595 13.70972 27778 ft 415 kts 193°
2026-05-06 13:06 50.98744 13.70196 27765 ft 415 kts 193°
2026-05-06 13:06 50.95891 13.69428 27761 ft 416 kts 193°
2026-05-06 13:06 50.94003 13.68921 27762 ft 416 kts 193°
2026-05-06 13:06 50.91141 13.68151 27760 ft 416 kts 193°
2026-05-06 13:07 50.88283 13.67379 27761 ft 416 kts 193°
2026-05-06 13:07 50.85426 13.66605 27762 ft 417 kts 193°
2026-05-06 13:07 50.82571 13.65831 27761 ft 417 kts 193°
2026-05-06 13:07 50.79711 13.65058 27760 ft 417 kts 193°
2026-05-06 13:08 50.76851 13.64288 27750 ft 417 kts 193°
2026-05-06 13:08 50.73992 13.63523 27753 ft 417 kts 193°
2026-05-06 13:08 50.71148 13.62647 27757 ft 415 kts 198°
2026-05-06 13:08 50.68395 13.61312 27757 ft 414 kts 200°
2026-05-06 13:09 50.65650 13.59935 27758 ft 414 kts 200°
2026-05-06 13:09 50.62909 13.58556 27761 ft 414 kts 200°
2026-05-06 13:09 50.60160 13.57179 27761 ft 414 kts 200°
2026-05-06 13:09 50.57411 13.55811 27763 ft 414 kts 200°
2026-05-06 13:10 50.54660 13.54446 27767 ft 414 kts 200°
2026-05-06 13:10 50.51917 13.53083 27762 ft 414 kts 200°
2026-05-06 13:10 50.49178 13.51725 27766 ft 413 kts 200°
2026-05-06 13:10 50.46430 13.50368 27768 ft 413 kts 200°
2026-05-06 13:11 50.43688 13.49014 27772 ft 413 kts 200°
2026-05-06 13:11 50.40987 13.47680 27773 ft 413 kts 200°
2026-05-06 13:11 50.38250 13.46327 27773 ft 413 kts 200°
2026-05-06 13:11 50.35511 13.44970 27776 ft 412 kts 200°
2026-05-06 13:12 50.32768 13.43617 27771 ft 412 kts 200°
2026-05-06 13:12 50.30032 13.42268 27771 ft 412 kts 200°
2026-05-06 13:12 50.27306 13.40923 27770 ft 412 kts 200°
2026-05-06 13:12 50.24568 13.39579 27768 ft 412 kts 200°
2026-05-06 13:13 50.21828 13.38240 27771 ft 412 kts 199°
2026-05-06 13:13 50.19076 13.36897 27774 ft 412 kts 199°
2026-05-06 13:13 50.16341 13.35561 27774 ft 412 kts 200°
2026-05-06 13:13 50.13603 13.34220 27774 ft 412 kts 200°
2026-05-06 13:14 50.10862 13.32878 27759 ft 412 kts 200°
2026-05-06 13:14 50.08126 13.31540 27763 ft 412 kts 199°
2026-05-06 13:14 50.05391 13.30204 27767 ft 412 kts 200°
2026-05-06 13:14 50.02656 13.28869 27770 ft 412 kts 199°
2026-05-06 13:15 49.99930 13.27546 27778 ft 412 kts 199°
2026-05-06 13:15 49.97197 13.26223 27777 ft 412 kts 199°
2026-05-06 13:15 49.94465 13.24900 27777 ft 411 kts 199°
2026-05-06 13:15 49.91769 13.23593 27778 ft 411 kts 199°
2026-05-06 13:16 49.89006 13.22253 27764 ft 411 kts 199°
2026-05-06 13:16 49.86275 13.20933 27767 ft 411 kts 199°
2026-05-06 13:16 49.83578 13.19632 27769 ft 411 kts 199°
2026-05-06 13:16 49.80852 13.18321 27770 ft 410 kts 199°
2026-05-06 13:17 49.78119 13.17007 27771 ft 410 kts 199°
2026-05-06 13:17 49.75399 13.15700 27771 ft 410 kts 199°
2026-05-06 13:17 49.72673 13.14388 27772 ft 410 kts 199°
2026-05-06 13:17 49.69946 13.13078 27774 ft 410 kts 199°
2026-05-06 13:18 49.67224 13.11773 27773 ft 410 kts 199°
2026-05-06 13:18 49.64498 13.10467 27776 ft 410 kts 199°
2026-05-06 13:18 49.61770 13.09161 27775 ft 410 kts 199°
2026-05-06 13:18 49.59049 13.07864 27774 ft 409 kts 199°
2026-05-06 13:19 49.56327 13.06575 27776 ft 409 kts 199°
2026-05-06 13:19 49.53607 13.05286 27776 ft 409 kts 199°
2026-05-06 13:19 49.50889 13.03991 27780 ft 409 kts 199°
2026-05-06 13:19 49.48170 13.02697 27775 ft 409 kts 199°
2026-05-06 13:20 49.45437 13.01403 27767 ft 409 kts 199°
2026-05-06 13:20 49.42716 13.00105 27779 ft 408 kts 201°
2026-05-06 13:20 49.40108 12.98421 27780 ft 406 kts 207°
2026-05-06 13:20 49.37592 12.96572 27789 ft 406 kts 207°
2026-05-06 13:21 49.35039 12.94699 27792 ft 407 kts 207°
2026-05-06 13:21 49.32489 12.92839 27791 ft 406 kts 207°
2026-05-06 13:21 49.29934 12.90981 27788 ft 405 kts 207°
2026-05-06 13:21 49.27388 12.89140 27781 ft 405 kts 207°
2026-05-06 13:22 49.24829 12.87292 27552 ft 406 kts 207°
2026-05-06 13:22 49.22280 12.85447 27284 ft 405 kts 207°
2026-05-06 13:22 49.19734 12.83601 27020 ft 405 kts 207°
2026-05-06 13:22 49.17181 12.81747 26763 ft 406 kts 207°
2026-05-06 13:23 49.14626 12.79891 26496 ft 407 kts 207°
2026-05-06 13:23 49.12065 12.78037 26243 ft 408 kts 207°
2026-05-06 13:23 49.09494 12.76178 25969 ft 408 kts 207°
2026-05-06 13:23 49.06936 12.74333 25173 ft 405 kts 206°
2026-05-06 13:24 49.04391 12.72503 24361 ft 402 kts 206°
2026-05-06 13:24 49.01868 12.70691 23566 ft 401 kts 206°
2026-05-06 13:24 48.99380 12.68902 22703 ft 399 kts 206°
2026-05-06 13:24 48.96878 12.67107 21948 ft 395 kts 206°
2026-05-06 13:25 48.94395 12.65326 21237 ft 391 kts 206°
2026-05-06 13:25 48.91945 12.63569 20552 ft 388 kts 206°
2026-05-06 13:25 48.89516 12.61836 19878 ft 384 kts 206°
2026-05-06 13:25 48.87099 12.60118 19220 ft 381 kts 206°
2026-05-06 13:26 48.84702 12.58418 18581 ft 378 kts 206°
2026-05-06 13:26 48.82330 12.56731 17936 ft 375 kts 205°
2026-05-06 13:26 48.79974 12.55054 17291 ft 371 kts 205°
2026-05-06 13:26 48.77652 12.53404 16743 ft 366 kts 205°
2026-05-06 13:27 48.75310 12.51943 16195 ft 362 kts 200°
2026-05-06 13:27 48.72950 12.50677 15651 ft 359 kts 201°
2026-05-06 13:27 48.70600 12.49416 15138 ft 355 kts 201°
2026-05-06 13:27 48.68283 12.48171 14634 ft 352 kts 201°
2026-05-06 13:28 48.66018 12.46903 14129 ft 349 kts 206°
2026-05-06 13:28 48.63947 12.45043 13637 ft 345 kts 219°
2026-05-06 13:28 48.62279 12.42513 13393 ft 334 kts 231°
2026-05-06 13:28 48.61067 12.39575 13032 ft 328 kts 243°
2026-05-06 13:29 48.60330 12.36316 12610 ft 326 kts 255°
2026-05-06 13:29 48.60040 12.32931 12201 ft 324 kts 261°
2026-05-06 13:29 48.59808 12.29576 11787 ft 319 kts 261°
2026-05-06 13:29 48.59580 12.26255 11382 ft 316 kts 261°
2026-05-06 13:30 48.59418 12.22960 10987 ft 314 kts 263°
2026-05-06 13:30 48.59301 12.19672 10591 ft 314 kts 264°
2026-05-06 13:30 48.59200 12.16418 10179 ft 314 kts 264°
2026-05-06 13:30 48.59098 12.13121 9787 ft 314 kts 264°
2026-05-06 13:31 48.58990 12.09839 9378 ft 311 kts 264°
2026-05-06 13:31 48.58879 12.06588 8965 ft 308 kts 264°
2026-05-06 13:31 48.58767 12.03425 8535 ft 294 kts 264°
2026-05-06 13:31 48.58655 12.00404 8195 ft 280 kts 264°
2026-05-06 13:32 48.58541 11.97481 8076 ft 279 kts 264°
2026-05-06 13:32 48.58425 11.94557 7954 ft 278 kts 264°
2026-05-06 13:32 48.58311 11.91642 7825 ft 278 kts 264°
2026-05-06 13:32 48.58198 11.88720 7705 ft 279 kts 264°
2026-05-06 13:33 48.58083 11.85803 7584 ft 277 kts 264°
2026-05-06 13:33 48.57969 11.82926 7460 ft 277 kts 264°
2026-05-06 13:33 48.57854 11.80024 7335 ft 276 kts 264°
2026-05-06 13:33 48.57739 11.77119 7220 ft 277 kts 264°
2026-05-06 13:34 48.57623 11.74221 7095 ft 277 kts 264°
2026-05-06 13:34 48.57503 11.71315 6974 ft 277 kts 264°
2026-05-06 13:34 48.57383 11.68418 6847 ft 277 kts 264°
2026-05-06 13:34 48.57264 11.65525 6724 ft 276 kts 264°
2026-05-06 13:35 48.57141 11.62633 6604 ft 276 kts 262°
2026-05-06 13:35 48.56718 11.59838 6476 ft 272 kts 246°
2026-05-06 13:35 48.55813 11.57347 6357 ft 270 kts 231°
2026-05-06 13:35 48.54664 11.55110 6236 ft 270 kts 230°
2026-05-06 13:36 48.53512 11.52863 6106 ft 270 kts 231°
2026-05-06 13:36 48.52366 11.50618 5975 ft 270 kts 231°
2026-05-06 13:36 48.51238 11.48404 5842 ft 270 kts 231°
2026-05-06 13:36 48.50058 11.46195 5706 ft 270 kts 222°
2026-05-06 13:37 48.48458 11.44810 5586 ft 267 kts 192°
2026-05-06 13:37 48.46623 11.44460 5458 ft 267 kts 184°
2026-05-06 13:37 48.44769 11.44180 5318 ft 267 kts 184°
2026-05-06 13:37 48.42979 11.43917 5157 ft 248 kts 180°
2026-05-06 13:38 48.41394 11.44407 5050 ft 226 kts 155°
2026-05-06 13:38 48.40011 11.45429 5001 ft 217 kts 152°
2026-05-06 13:38 48.38697 11.46494 5011 ft 213 kts 150°
2026-05-06 13:38 48.37400 11.47551 5007 ft 211 kts 150°
2026-05-06 13:39 48.36142 11.48681 5013 ft 210 kts 140°
2026-05-06 13:39 48.35151 11.50298 4849 ft 212 kts 121°
2026-05-06 13:39 48.34586 11.52333 4635 ft 211 kts 101°
2026-05-06 13:39 48.34527 11.54545 4379 ft 214 kts 83°
2026-05-06 13:40 48.34706 11.56772 4090 ft 216 kts 83°
2026-05-06 13:40 48.34885 11.59010 3821 ft 215 kts 83°
2026-05-06 13:40 48.35059 11.61200 3529 ft 207 kts 83°
2026-05-06 13:40 48.35224 11.63298 3278 ft 201 kts 82°
2026-05-06 13:41 48.35385 11.65348 3006 ft 188 kts 83°
2026-05-06 13:41 48.35533 11.67236 2744 ft 179 kts 82°
2026-05-06 13:41 48.35674 11.69025 2438 ft 164 kts 83°
2026-05-06 13:41 48.35810 11.70684 2342 ft 157 kts 82°
2026-05-06 13:42 48.35938 11.72306 2119 ft 154 kts 82°
2026-05-06 13:42 48.36049 11.73896 1900 ft 152 kts 82°
2026-05-06 13:42 48.36175 11.75460 1696 ft 150 kts 82°
2026-05-06 13:42 48.36291 11.76999 1506 ft 147 kts 82°
2026-05-06 13:43 48.36402 11.78378 1485 ft 111 kts 83°
2026-05-06 13:43 48.36469 11.79278 1485 ft 62 kts 83°
2026-05-06 13:43 48.36510 11.79765 1472 ft 40 kts 83°
2026-05-06 13:43 48.36472 11.80120 1481 ft 33 kts 113°
2026-05-06 13:44 48.36382 11.80431 1482 ft 26 kts 114°
2026-05-06 13:44 48.36309 11.80508 1483 ft 14 kts 207°
2026-05-06 13:44 48.36283 11.80386 1485 ft 12 kts 263°
2026-05-06 13:44 48.36272 11.80232 1485 ft 17 kts 264°
2026-05-06 13:45 48.36257 11.80026 1485 ft 22 kts 264°
2026-05-06 13:45 48.36217 11.79514 1475 ft 20 kts 256°
2026-05-06 13:45 48.36100 11.79476 1480 ft 18 kts 174°
2026-05-06 13:46 48.36000 11.79494 1475 ft 9 kts 173°
2026-05-06 13:46 48.35977 11.79498 1480 ft 0 kts 174°
2026-05-06 13:47 48.35967 11.79500 1483 ft 6 kts 174°
2026-05-06 13:47 48.35905 11.79450 1482 ft 16 kts 244°
2026-05-06 13:47 48.35812 11.79391 1478 ft 16 kts 172°
2026-05-06 13:47 48.35712 11.79410 1473 ft 13 kts 173°
2026-05-06 13:48 48.35656 11.79401 1485 ft 6 kts 238°
2026-05-06 13:48 48.35648 11.79342 1482 ft 5 kts 263°
2026-05-06 13:48 48.35644 11.79280 1475 ft 7 kts 264°
2026-05-06 13:48 48.35643 11.79273 1477 ft 0 kts 263°